STARLINK-4722, 53775

Orbit data source: Space-Track

STARLINK-4722, 53775 is a payload satellite owned by SpaceX/Seattle (US) in LEO that was launched on Sun, 11 Sep 2022 UTC via an FALCON 9 launch vehicle from the Air Force Eastern Test Range (AFETR). Payload-class satellites include a variety of spacecraft equipped with specific instruments for various scientific and technological missions. These include communications satellites like Starlink; space stations such as the ISS; scientific satellites like the Hubble; Earth observation satellites from companies like Planet Labs, Umbra, and HawkEye 360; GPS; miniature CubeSats for education and research; and military/defense satellites.

Loading next visibility...
Identifier
53775, 2022-111C
Orbit
LEO
Country
Flag of USUS
Related business
Manufacturer
SpaceX/Seattle
Mission
Operational Commercial Communications
Bus & Motor
STARLINK, Unknown motor
Mass
305 kg wet, ~290 kg dry
Launch date (UTC)
2022-09-11 (4 years ago)
Launch vehicle
FALCON 9
Launch site
Air Force Eastern Test Range (AFETR)
Object type
Payload
Rocket body
Debris
Shape & HBR
Box + 1 Pan, 10.1 m
Radar Cross Section
13.562 m², Large (>1 m²)

Expand to show TLE details & history
Last TLE update: 10 hours ago

TLE from 10 hours ago
0 STARLINK-4722
1 53775U 22111C   26127.91355897 -.00000462  00000-0 -10956-4 0  9998
2 53775  53.2201   8.4865 0001486  83.0359 277.0802 15.08836077202634
Epoch: 2026-05-07T21:55Z
TLE epoch observation values (Epoch: 2026-05-07T21:55:31.495Z)
Latitude
-0.00001°
Longitude
173.85239°
Altitude
540.527 km
Speed
7.593 km/s
True Right ascension
00h 33m 56s
True Declination
0° 00' 00"
Sunlit
Object was in daylight at epoch
Visualization orbit readout
Latitude
Unknown
Longitude
Unknown
Altitude
Unknown
Speed
Unknown
Apparent Right ascension
Unknown
Apparent Declination
Unknown
Sunlit
N/A
Visualization observer readout
Local Sidereal Time
16:08:11
Azimuth
Unknown
Elevation
Unknown
Doppler factor
Unknown
Orbital elements
Apogee altitude
541.028 km
Perigee altitude
538.972 km
Semi-major axis
6,918.137 km
Eccentricity
0.00015
Inclination
53.2201°
RAAN
8.4865°
Arg. of periapsis
83.0359°
True anomaly
277.0633°
Mean anomaly
277.0802°
Eccentric anomaly
277.07175°
Mean motion
3.77189 °/min
Orbital period
95.44 mins
BSTAR
-0.000010956
Loading maneuver chart data...
Computing Atmospheric mass density...
Loading historical data...
Loading historical data...
Loading historical data...
Loading historical data...
Loading historical data...
Loading historical data...
Loading historical data...

Documentation

Showing up to 5 results
|